DW9792 Weather Reports


time (UTC)temp
C
wind
direction
speed
KPH
gust
KPH
rain 1hr
cm
rain 24hr
cm
rain mn
cm
humidity
%
barometer
mb
20260506153027 25 148 9.7 24.1 0.00 0.00 0.00 61 1016.6
20260506151507 25 150 6.4 22.5 0.00 0.00 0.00 62 1016.6
20260506150013 25 229 6.4 19.3 0.00 0.00 0.00 63 1016.8
20260506144504 24 281 4.8 17.7 0.00 0.00 0.00 65 1016.9
20260506143004 23 250 9.7 24.1 0.00 0.00 0.00 66 1017.0
20260506141504 23 266 9.7 22.5 0.00 0.00 0.00 66 1017.0
20260506140011 23 264 8.0 22.5 0.00 0.00 0.00 68 1016.7
20260506134504 23 269 11.3 20.9 0.00 0.00 0.00 66 1016.8
20260506133006 23 234 9.7 25.7 0.00 0.00 0.00 69 1016.8
20260506131508 23 221 6.4 11.3 0.00 0.00 0.00 71 1016.7
20260506130006 22 228 6.4 14.5 0.00 0.00 0.00 73 1016.6
20260506124507 22 261 4.8 12.9 0.00 0.00 0.00 76 1016.6
20260506123007 21 250 3.2 8.0 0.00 0.00 0.00 79 1016.6
20260506121516 20 229 3.2 8.0 0.00 0.00 0.00 80 1016.5
20260506120014 20 122 1.6 6.4 0.00 0.00 0.00 84 1016.4
20260506114514 18 325 1.6 8.0 0.00 0.00 0.00 89 1016.5
20260506113015 17 229 1.6 4.8 0.00 0.00 0.00 95 1016.5
20260506111517 15 132 0.0 0.0 0.00 0.00 0.00 94 1016.6
20260506110016 13 132 0.0 0.0 0.00 0.00 0.00 94 1016.6
20260506104539 13 136 0.0 3.2 0.00 0.00 0.00 94 1016.2
20260506103018 12 180 0.0 3.2 0.00 0.00 0.00 94 1016.2
20260506101518 12 180 0.0 0.0 0.00 0.00 0.00 94 1016.1
20260506100019 12 180 0.0 0.0 0.00 0.00 0.00 93 1016.2
20260506094518 12 180 0.0 0.0 0.00 0.00 0.00 93 1016.2
20260506093017 12 180 0.0 0.0 0.00 0.00 0.00 93 1016.2
20260506091504 12 180 0.0 3.2 0.00 0.00 0.00 93 1016.3
20260506090007 12 180 0.0 0.0 0.00 0.00 0.00 93 1016.3
20260506084512 13 180 0.0 3.2 0.00 0.00 0.00 93 1016.4
20260506083030 13 180 0.0 0.0 0.00 0.00 0.00 93 1016.5
20260506081513 13 180 0.0 0.0 0.00 0.00 0.00 93 1016.4
20260506073015 13 178 0.0 3.2 0.00 0.00 0.00 92 1016.4
20260506071515 13 178 0.0 3.2 0.00 0.00 0.00 92 1016.5
20260506061516 13 178 0.0 0.0 0.00 0.00 0.00 91 1016.7
20260506044526 15 178 0.0 3.2 0.00 0.00 0.00 87 1017.8
20260506043019 16 166 0.0 3.2 0.00 0.00 0.00 86 1017.9
20260506041514 16 246 0.0 4.8 0.00 0.00 0.00 1017.9
20260506040033 16 124 0.0 3.2 0.00 0.00 0.00 84 1018.0
20260506034524 16 164 0.0 3.2 0.00 0.00 0.00 83 1018.1
20260506033026 17 198 0.0 3.2 0.00 0.00 0.00 82 1018.1
20260506031524 17 81 0.0 3.2 0.00 0.00 0.00 80 1018.1
20260506030021 17 96 0.0 3.2 0.00 0.00 0.00 79 1018.3
20260506024528 17 215 0.0 4.8 0.00 0.00 0.00 78 1018.3
20260506023026 18 136 0.0 3.2 0.00 0.00 0.00 76 1018.3
20260506021541 18 121 1.6 3.2 0.00 0.00 0.00 75 1018.3
20260506020024 18 186 1.6 4.8 0.00 0.00 0.00 74 1018.2
20260506014525 18 132 0.0 6.4 0.00 0.00 0.00 74 1018.0
20260506013024 18 189 0.0 4.8 0.00 0.00 0.00 72 1018.1
20260506011527 18 163 0.0 6.4 0.00 0.00 0.00 71 1017.9
20260506010036 18 237 0.0 8.0 0.00 0.00 0.00 70 1017.8
20260506004526 19 109 1.6 6.4 0.00 0.00 0.00 68 1017.7
20260506003023 20 193 3.2 11.3 0.00 0.00 0.00 67 1017.7
20260506001507 20 98 1.6 14.5 0.00 0.00 0.00 65 1017.8
20260506000011 20 198 3.2 16.1 0.00 0.00 0.00 64 1017.7
20260505234518 20 202 4.8 12.9 0.00 0.00 0.00 63 1017.6
20260505233022 21 298 1.6 14.5 0.00 0.00 0.00 61 1017.6
20260505231504 21 198 3.2 14.5 0.00 0.00 0.00 59 1017.6
20260505230009 21 234 6.4 22.5 0.00 0.00 0.00 57 1017.6
20260505224524 22 104 6.4 25.7 0.00 0.00 0.00 56 1017.6
20260505223019 22 241 8.0 22.5 0.00 0.00 0.00 57 1017.7
20260505221524 22 273 8.0 16.1 0.00 0.00 0.00 56 1017.6
20260505220008 22 202 9.7 22.5 0.00 0.00 0.00 56 1017.6
20260505214515 22 244 8.0 20.9 0.00 0.00 0.00 56 1017.6
20260505213019 23 161 4.8 17.7 0.00 0.00 0.00 56 1017.4
20260505211535 23 182 8.0 19.3 0.00 0.00 0.00 56 1017.4
20260505210024 23 251 6.4 22.5 0.00 0.00 0.00 57 1017.5
20260505204511 23 309 6.4 19.3 0.00 0.00 0.00 57 1017.4
20260505203015 23 234 8.0 24.1 0.00 0.00 0.00 55 1017.4
20260505201523 24 161 8.0 22.5 0.00 0.00 0.00 53 1017.6
20260505200025 24 210 6.4 22.5 0.00 0.00 0.00 53 1017.8
20260505194526 24 242 11.3 25.7 0.00 0.00 0.00 53 1018.2
20260505193014 25 72 4.8 19.3 0.00 0.00 0.00 50 1018.2
20260505191520 25 217 11.3 22.5 0.00 0.00 0.00 50 1018.4
20260505190023 25 244 6.4 27.4 0.00 0.00 0.00 52 1018.5
20260505184534 25 148 4.8 22.5 0.00 0.00 0.00 50 1018.4
20260505183037 25 180 6.4 19.3 0.00 0.00 0.00 52 1018.5
20260505181521 25 126 8.0 20.9 0.00 0.00 0.00 48 1018.6
20260505180023 25 192 4.8 17.7 0.00 0.00 0.00 48 1018.3
20260505174528 25 271 6.4 22.5 0.00 0.00 0.00 49 1018.4
20260505173027 25 263 4.8 19.3 0.00 0.00 0.00 50 1018.3
20260505171517 25 250 3.2 16.1 0.00 0.00 0.00 50 1018.3
20260505170033 25 98 4.8 12.9 0.00 0.00 0.00 50 1018.5
20260505164525 25 232 3.2 17.7 0.00 0.00 0.00 49 1018.7
20260505163028 25 185 8.0 24.1 0.00 0.00 0.00 51 1018.8
20260505161527 24 185 3.2 17.7 0.00 0.00 0.00 51 1018.9